Weather History for Jesup, GA

Change the Weather History Date:

Thursday, July 4, 2013

  Actual Average (KLHW) Record (KLHW)
Temperature  
Mean Temperature 78 °F -  
Max Temperature 86 °F 93 °F 100 °F (1979)
Min Temperature 69 °F 70 °F 61 °F (1968)
Cooling Degree Days 12    
Growing Degree Days 28 (Base 50)    
Moisture  
Dew Point 73 °F    
Average Humidity 89    
Maximum Humidity 100    
Minimum Humidity 66    
Precipitation  
Precipitation 0.00 in - - ()
Sea Level Pressure  
Sea Level Pressure 30.15 in    
Wind  
Wind Speed 6 mph (SSE)    
Max Wind Speed 16 mph    
Max Gust Speed 25 mph    
Visibility 10 miles    
Events Rain , Thunderstorm    
Averages and records for this station are not official NWS values.
T = Trace of Precipitation, MM = Missing Value Source: NWS Daily Summary

Daily Weather History Graph

Daily Weather History Graph

Search for Another Location

Airport:

Trip Planner

Search our weather history database for the weather conditions in past years. The results will help you decide how hot, cold, wet, or windy it might be!

Date:

Astronomy

Jul. 04, 2013 Rise Set
Actual Time 6:27 AM EDT 8:36 PM EDT
Civil Twilight 5:59 AM EDT 9:04 PM EDT
Nautical Twilight 5:25 AM EDT 9:38 PM EDT
Astronomical Twilight 4:49 AM EDT 10:14 PM EDT
Moon 3:38 AM EDT (7/4) 5:43 PM EDT (7/4)
Length of Visible Light 15h 04m
Length of Day
14h 08m
Waning Crescent, 11% of the Moon is Illuminated
Jul 4
Waning Crescent
Jul 8
New
Jul 15
First Quarter
Jul 22
Full
Jul 29
Last Quarter

Hourly Weather History & Observations

Time (EDT) Temp. Heat Index Dew Point Humidity Pressure Visibility Wind Dir Wind Speed Gust Speed Precip Events Conditions
12:15 AM 77.0 °F - 75.2 °F 94% 30.17 in 10.0 mi SSE 5.8 mph - N/A   Clear
12:35 AM 77.0 °F - 75.2 °F 94% 30.16 in 10.0 mi SSE 6.9 mph - N/A   Clear
12:55 AM 77.0 °F - 73.4 °F 89% 30.16 in 10.0 mi SE 5.8 mph - N/A   Clear
1:15 AM 75.2 °F - 73.4 °F 94% 30.16 in 10.0 mi SE 4.6 mph - N/A   Clear
1:35 AM 75.2 °F - 73.4 °F 94% 30.16 in 10.0 mi SSE 4.6 mph - N/A   Clear
1:55 AM 75.2 °F - 73.4 °F 94% 30.16 in 10.0 mi SSE 3.5 mph - N/A   Clear
2:15 AM 75.2 °F - 73.4 °F 94% 30.16 in 10.0 mi SSE 3.5 mph - N/A   Scattered Clouds
2:35 AM 75.2 °F - 73.4 °F 94% 30.15 in 10.0 mi SE 4.6 mph - N/A   Scattered Clouds
2:55 AM 75.2 °F - 73.4 °F 94% 30.13 in 10.0 mi SE 5.8 mph - N/A   Clear
3:15 AM 73.4 °F - 73.4 °F 100% 30.13 in 10.0 mi SE 5.8 mph - N/A   Clear
3:35 AM 73.4 °F - 73.4 °F 100% 30.13 in 10.0 mi SE 4.6 mph - N/A   Clear
3:55 AM 73.4 °F - 73.4 °F 100% 30.13 in 10.0 mi SSE 4.6 mph - N/A   Clear
4:15 AM 73.4 °F - 73.4 °F 100% 30.13 in 10.0 mi SSE 4.6 mph - N/A   Clear
4:35 AM 73.4 °F - 73.4 °F 100% 30.14 in 10.0 mi SE 4.6 mph - N/A   Clear
4:55 AM 73.4 °F - 73.4 °F 100% 30.14 in 10.0 mi SSE 3.5 mph - N/A   Clear
5:15 AM 73.4 °F - 73.4 °F 100% 30.14 in 10.0 mi SE 3.5 mph - N/A   Clear
5:35 AM 73.4 °F - 73.4 °F 100% 30.14 in 10.0 mi SE 3.5 mph - N/A   Clear
5:55 AM 73.4 °F - 73.4 °F 100% 30.14 in 10.0 mi ESE 3.5 mph - N/A   Clear
6:15 AM 71.6 °F - 71.6 °F 100% 30.14 in 7.0 mi SE 3.5 mph - N/A   Clear
6:35 AM 71.6 °F - 71.6 °F 100% 30.15 in 7.0 mi Calm Calm - N/A   Clear
6:55 AM 71.6 °F - 71.6 °F 100% 30.15 in 7.0 mi SE 3.5 mph - N/A   Clear
7:15 AM 73.4 °F - 73.4 °F 100% 30.15 in 7.0 mi SE 3.5 mph - N/A   Clear
7:35 AM 73.4 °F - 73.4 °F 100% 30.15 in 10.0 mi SE 5.8 mph - N/A   Clear
7:55 AM 75.2 °F - 73.4 °F 94% 30.15 in 10.0 mi SE 3.5 mph - N/A   Clear
8:15 AM 77.0 °F - 75.2 °F 94% 30.15 in 10.0 mi SE 4.6 mph - N/A   Clear
8:35 AM 78.8 °F - 75.2 °F 89% 30.16 in 10.0 mi SE 8.1 mph - N/A   Scattered Clouds
8:55 AM 78.8 °F - 75.2 °F 89% 30.16 in 10.0 mi SSE 8.1 mph - N/A   Scattered Clouds
9:15 AM 80.6 °F 86.2 °F 75.2 °F 84% 30.16 in 10.0 mi SSE 8.1 mph - N/A   Scattered Clouds
9:35 AM 80.6 °F 86.2 °F 75.2 °F 84% 30.16 in 10.0 mi SSE 6.9 mph - N/A   Mostly Cloudy
9:55 AM 80.6 °F 86.2 °F 75.2 °F 84% 30.16 in 10.0 mi SSE 9.2 mph 18.4 mph N/A   Mostly Cloudy
10:15 AM 82.4 °F 90.9 °F 77.0 °F 84% 30.17 in 10.0 mi South 10.4 mph - N/A   Mostly Cloudy
10:35 AM 80.6 °F 86.2 °F 75.2 °F 84% 30.17 in 10.0 mi South 8.1 mph - N/A Rain Rain
10:55 AM 77.0 °F - 75.2 °F 94% 30.17 in 4.0 mi SSW 8.1 mph 16.1 mph N/A Rain Light Rain
11:15 AM 78.8 °F - 77.0 °F 94% 30.17 in 10.0 mi SSW 4.6 mph - N/A   Overcast
11:35 AM 80.6 °F 87.1 °F 77.0 °F 89% 30.17 in 10.0 mi South 9.2 mph - N/A   Overcast
11:55 AM 80.6 °F 86.2 °F 75.2 °F 84% 30.17 in 10.0 mi South 6.9 mph - N/A   Overcast
12:15 PM 82.4 °F 88.2 °F 73.4 °F 74% 30.17 in 10.0 mi SSE 10.4 mph 18.4 mph N/A   Overcast
12:35 PM 80.6 °F 87.1 °F 77.0 °F 89% 30.16 in 10.0 mi SSE 9.2 mph - N/A   Overcast
12:55 PM 82.4 °F 88.2 °F 73.4 °F 74% 30.16 in 10.0 mi SSE 12.7 mph 21.9 mph N/A   Overcast
1:15 PM 82.4 °F 88.2 °F 73.4 °F 74% 30.15 in 10.0 mi SSE 12.7 mph 24.2 mph N/A   Mostly Cloudy
1:35 PM 82.4 °F 88.2 °F 73.4 °F 74% 30.15 in 10.0 mi SSE 10.4 mph 18.4 mph N/A   Mostly Cloudy
1:55 PM 84.2 °F 90.9 °F 73.4 °F 70% 30.15 in 10.0 mi South 13.8 mph 25.3 mph N/A   Mostly Cloudy
2:15 PM 86.0 °F 93.4 °F 73.4 °F 66% 30.14 in 10.0 mi South 10.4 mph 19.6 mph N/A   Mostly Cloudy
2:35 PM 84.2 °F 90.9 °F 73.4 °F 70% 30.14 in 10.0 mi South 12.7 mph 23.0 mph N/A   Mostly Cloudy
2:55 PM 86.0 °F 93.4 °F 73.4 °F 66% 30.13 in 10.0 mi South 13.8 mph 23.0 mph N/A   Scattered Clouds
3:15 PM 84.2 °F 90.9 °F 73.4 °F 70% 30.13 in 10.0 mi SSE 11.5 mph 21.9 mph N/A   Scattered Clouds
3:35 PM 86.0 °F 93.4 °F 73.4 °F 66% 30.12 in 10.0 mi South 13.8 mph 20.7 mph N/A   Mostly Cloudy
3:55 PM 84.2 °F 90.9 °F 73.4 °F 70% 30.13 in 10.0 mi SSE 16.1 mph 23.0 mph N/A   Mostly Cloudy
4:15 PM 82.4 °F 88.2 °F 73.4 °F 74% 30.13 in 10.0 mi SSE 6.9 mph 19.6 mph N/A   Mostly Cloudy
4:35 PM 82.4 °F 88.2 °F 73.4 °F 74% 30.13 in 10.0 mi SSE 9.2 mph - N/A   Scattered Clouds
4:55 PM 82.4 °F 88.2 °F 73.4 °F 74% 30.13 in 10.0 mi SSE 9.2 mph 17.3 mph N/A   Scattered Clouds
5:15 PM 80.6 °F 85.4 °F 73.4 °F 79% 30.13 in 10.0 mi SSE 8.1 mph 17.3 mph N/A   Scattered Clouds
5:35 PM 80.6 °F 85.4 °F 73.4 °F 79% 30.13 in 10.0 mi SSE 8.1 mph - N/A   Scattered Clouds
5:55 PM 80.6 °F 85.4 °F 73.4 °F 79% 30.13 in 10.0 mi SSE 9.2 mph - N/A Thunderstorm Mostly Cloudy
6:15 PM 80.6 °F 85.4 °F 73.4 °F 79% 30.13 in 10.0 mi SSE 5.8 mph - N/A Thunderstorm Mostly Cloudy
6:35 PM 80.6 °F 85.4 °F 73.4 °F 79% 30.14 in 10.0 mi SSE 10.4 mph - N/A   Mostly Cloudy
6:55 PM 80.6 °F 85.4 °F 73.4 °F 79% 30.15 in 10.0 mi SSE 4.6 mph - N/A   Scattered Clouds
7:15 PM 78.8 °F - 73.4 °F 83% 30.15 in 10.0 mi South 8.1 mph - N/A   Scattered Clouds
7:35 PM 78.8 °F - 73.4 °F 83% 30.17 in 10.0 mi SW 4.6 mph - N/A   Mostly Cloudy
7:55 PM 75.2 °F - 69.8 °F 83% 30.17 in 10.0 mi West 3.5 mph - N/A Rain Light Rain
8:15 PM 71.6 °F - 69.8 °F 94% 30.17 in 4.0 mi Calm Calm - N/A Rain Heavy Rain
8:35 PM 71.6 °F - 71.6 °F 100% 30.17 in 10.0 mi Calm Calm - N/A   Overcast
8:55 PM 71.6 °F - 71.6 °F 100% 30.18 in 10.0 mi Calm Calm - N/A Rain Light Rain
9:15 PM 71.6 °F - 71.6 °F 100% 30.17 in 10.0 mi Calm Calm - N/A Rain Rain
9:35 PM 71.6 °F - 71.6 °F 100% 30.19 in 10.0 mi SW 3.5 mph - N/A   Overcast
9:55 PM 71.6 °F - 71.6 °F 100% 30.19 in 10.0 mi Calm Calm - N/A Rain Light Rain
10:15 PM 71.6 °F - 71.6 °F 100% 30.19 in 7.0 mi Calm Calm - N/A Rain Light Rain
10:35 PM 71.6 °F - 71.6 °F 100% 30.19 in 10.0 mi Calm Calm - N/A Rain Light Rain
10:55 PM 71.6 °F - 71.6 °F 100% 30.20 in 10.0 mi Calm Calm - N/A Rain Light Rain
11:15 PM 71.6 °F - 71.6 °F 100% 30.19 in 10.0 mi Calm Calm - N/A   Scattered Clouds
11:35 PM 69.8 °F - 69.8 °F 100% 30.18 in 10.0 mi Calm Calm - N/A   Clear
11:55 PM 69.8 °F - 69.8 °F 100% 30.18 in 10.0 mi Calm Calm - N/A   Clear